User: anonymous   Login
Location: Caltech
(34.1382°N, 118.1253°W)
Time: 21:43:50
(UTC-08:00)
Language:

Gbstr 26 Del rocket - Orbit

View from above orbital plane
View from above orbital plane
View from above satellite
View from above satellite

Ground track
Ground track

The orbit data is extracted from the following two-line orbital elements,

1 25876U 99041E   14330.73446233  .00003262  00000-0  60289-3 0  5272
2 25876 051.7662 036.9302 0538591 189.4253 322.7356 14.02626632783528
Epoch (UTC): 26 November 2014 17:37:37
Eccentricity: 0.0538591
inclination: 51.7662°
perigee height: 493 km
apogee height: 1276 km
right ascension of ascending node: 36.9302°
argument of perigee: 189.4253°
revolutions per day: 14.02626632
mean anomaly at epoch: 322.7356°
orbit number at epoch: 78352

The dashed part of the orbit path shows where the satellite is in the earth's shadow,  

DLR